Weather History for Luxor, Egypt

Change the Weather History Date:

Tuesday, June 18, 2013

  Actual Average Record
Temperature  
Mean Temperature 88 °F -  
Max Temperature 102 °F 103 °F - ()
Min Temperature 75 °F 76 °F - ()
Cooling Degree Days 24    
Growing Degree Days 38 (Base 50)    
Moisture  
Dew Point 58 °F    
Average Humidity 35    
Maximum Humidity 54    
Minimum Humidity 14    
Precipitation  
Precipitation 0.00 in 0.00 in - ()
Sea Level Pressure  
Sea Level Pressure 29.64 in    
Wind  
Wind Speed 1 mph ()    
Max Wind Speed 5 mph    
Max Gust Speed -    
Visibility 6.0 miles    
Events      
T = Trace of Precipitation, MM = Missing Value Source: Averaged Metar Reports

Daily Weather History Graph

Daily Weather History Graph

Search for Another Location

Airport:

Trip Planner

Search our weather history database for the weather conditions in past years. The results will help you decide how hot, cold, wet, or windy it might be!

Date:

Astronomy

Jun. 18, 2013 Rise Set
Actual Time 4:58 AM EET 6:42 PM EET
Civil Twilight 4:32 AM EET 7:08 PM EET
Nautical Twilight 4:00 AM EET 7:39 PM EET
Astronomical Twilight 3:28 AM EET 8:12 PM EET
Moon 1:27 PM EET (6/18) 12:27 AM EET (6/18)
Length of Visible Light 14h 36m
Length of Day
13h 44m
Waxing Gibbous, 68% of the Moon is Illuminated
Jun 18
Waxing Gibbous
Jun 23
Full
Jun 30
Last Quarter
Jul 8
New
Jul 16
First Quarter

Hourly Weather History & Observations

Time (EET) Temp. Heat Index Dew Point Humidity Pressure Visibility Wind Dir Wind Speed Gust Speed Precip Events Conditions
12:00 AM 82.4 °F 82.9 °F 60.8 °F 48% 29.65 in - Calm Calm - N/A   Clear
1:00 AM 80.6 °F 81.1 °F 59.0 °F 48% 29.65 in - Calm Calm - N/A   Clear
2:00 AM 80 °F - 60 °F 40% 29.64 in 6 mi SW 3.5 mph - -  
2:00 AM 80.6 °F 81.5 °F 60.8 °F 51% 29.65 in - SW 3.5 mph - N/A   Clear
3:00 AM 78.8 °F - 59.0 °F 51% 29.65 in - Calm Calm - N/A   Clear
4:00 AM 77.0 °F - 59.0 °F 54% 29.65 in - Calm Calm - N/A   Clear
5:00 AM 78.8 °F - 59.0 °F 51% 29.65 in - Calm Calm - N/A   Clear
6:00 AM 78.8 °F - 57.2 °F 47% 29.68 in - SSE 1.2 mph - N/A   Clear
7:00 AM 82.4 °F 82.5 °F 59.0 °F 45% 29.68 in - South 2.3 mph - N/A   Clear
8:00 AM 85 °F - 60 °F 32% 29.69 in 6 mi SE 2.3 mph - -  
8:00 AM 86.0 °F 85.4 °F 59.0 °F 40% 29.71 in - SE 2.3 mph - N/A   Clear
9:00 AM 87.8 °F 87.1 °F 59.0 °F 38% 29.68 in - Calm Calm - N/A   Clear
10:00 AM 93.2 °F 91.9 °F 57.2 °F 30% 29.68 in - NNE 3.5 mph - N/A   Clear
11:00 AM 95.0 °F 94.4 °F 59.0 °F 30% 29.68 in - WNW 3.5 mph - N/A   Clear
12:00 PM 96.8 °F 97.1 °F 60.8 °F 30% 29.65 in - NW 4.6 mph - N/A   Clear
1:00 PM 98.6 °F 99.4 °F 60.8 °F 29% 29.65 in - Calm Calm - N/A   Clear
2:00 PM 101 °F - 56 °F 14% 29.61 in 6 mi NW 4.6 mph - -  
2:00 PM 100.4 °F 99.7 °F 57.2 °F 24% 29.62 in - NW 4.6 mph - N/A   Clear
3:00 PM 102.2 °F 101.4 °F 57.2 °F 22% 29.59 in - NNW 4.6 mph - N/A   Clear
4:00 PM 102.2 °F 101.4 °F 57.2 °F 22% 29.59 in - WNW 2.3 mph - N/A   Clear
5:00 PM 102.2 °F 101.4 °F 57.2 °F 22% 29.59 in - Calm Calm - N/A   Clear
6:00 PM 98.6 °F 97.6 °F 57.2 °F 25% 29.59 in - NNE 2.3 mph - N/A   Clear
7:00 PM 96.8 °F 95.8 °F 57.2 °F 27% 29.59 in - Calm Calm - N/A   Clear
8:00 PM 91.4 °F 90.7 °F 59.0 °F 34% 29.62 in - WSW 2.3 mph - N/A   Clear
9:00 PM 87.8 °F 87.1 °F 59.0 °F 38% 29.62 in - Calm Calm - N/A   Clear
10:00 PM 89.6 °F 87.7 °F 55.4 °F 31% 29.62 in - South 2.3 mph - N/A   Clear
11:00 PM 84.2 °F - 51.8 °F 33% 29.62 in - SW 3.5 mph - N/A   Clear